Погода в Бурунах

Россия / Астраханская область     46°11′06″N   47°15′13″E
темп.,
°C
ветер,
м/с
пор.,
м/с
влажн.,
%
обл.,
%
осадки,
мм/ч
давл.,
гПа
погр.,
м
27 сентября, пн
пн2701:00+16з9136861 0.7 1009849
04:00+15з913645 0.8 1010990
07:00+13з712650 0.0 1010556
10:00+15з1012520 0.0 10111354
13:00+17зсз11144230 0.0 10112021
16:00+17сз11134221 0.0 10112102
19:00+15зсз8125336 0.0 10131461
22:00+15зсз6105647 0.0 10141016
28 сентября, вт
вт2801:00+13зсз48686 0.0 1014252
04:00+12зсз47755 0.0 1015184
07:00+11зсз35825 0.0 1016124
10:00+14сз44665 0.0 1017645
13:00+17сз445268 0.1 10171523
16:00+17ссз4445100 0.3 10171744
19:00+15ссв6654100 0.0 1019610
22:00+14ссз355678 0.0 1021378
29 сентября, ср
ср2901:00+12ссв475243 0.0 1022265
04:00+10ссв58555 0.0 1022299
07:00+9ссв585716 0.0 1024404
10:00+11ссв56505 0.0 1025939
13:00+13ссв55406 0.0 10251502
16:00+14ссв563691 0.0 10241801
19:00+12ссв4638100 0.0 1025368
22:00+11св4742100 0.0 1026236
30 сентября, чт
чт3001:00+10св3644100 0.0 1026164
04:00+8св5948100 0.0 1026242
07:00+8св4851100 0.0 1028181
10:00+11всв5639100 0.0 1029750
13:00+13всв55318 0.0 10291950
16:00+14св442729 0.0 10292239
19:00+12ссв4633100 0.0 1030315
22:00+10ссв463721 0.0 1031132
1 октября, пт
пт101:00+9св34410 0.0 103171
04:00+8св34440 0.0 103272
07:00+7св34460 0.0 103268
10:00+12всв34330 0.0 1033493
13:00+14всв33272 0.0 10331955
16:00+15св33251 0.0 10322155
19:00+13ссв46310 0.0 1033148
22:00+11в34400 0.0 103373